Time,TemperatureF,DewpointF,PressureIn,WindDirection,WindDirectionDegrees,WindSpeedMPH,WindSpeedGustMPH,Humidity,HourlyPrecipIn,Conditions,Clouds,dailyrainin,SoftwareType,DateUTC
2013-01-18 00:03:00,35.5,34.0,30.36,WSW,247,0.0,0.0,94,0.00,,,0.00,weatherlink.com 1.10,2013-01-18 06:03:00,
2013-01-18 00:18:00,34.8,34.0,30.37,WSW,248,0.0,0.0,95,0.00,,,0.00,weatherlink.com 1.10,2013-01-18 06:18:00,
2013-01-18 00:33:00,34.4,33.0,30.37,West,267,0.0,1.0,96,0.00,,,0.00,weatherlink.com 1.10,2013-01-18 06:33:00,
2013-01-18 00:48:00,33.7,33.0,30.38,West,263,0.0,0.0,96,0.00,,,0.00,weatherlink.com 1.10,2013-01-18 06:48:00,
2013-01-18 01:03:00,33.6,33.0,30.39,West,263,0.0,0.0,97,0.00,,,0.00,weatherlink.com 1.10,2013-01-18 07:03:00,
2013-01-18 01:18:00,33.5,33.0,30.39,West,263,0.0,0.0,97,0.00,,,0.00,weatherlink.com 1.10,2013-01-18 07:18:00,
2013-01-18 01:34:00,32.9,32.0,30.39,West,263,0.0,0.0,97,0.00,,,0.00,weatherlink.com 1.10,2013-01-18 07:34:00,
2013-01-18 01:49:00,33.5,33.0,30.39,SW,228,1.0,1.0,99,0.00,,,0.00,weatherlink.com 1.10,2013-01-18 07:49:00,
2013-01-18 02:04:00,34.4,34.0,30.39,West,264,1.0,1.0,99,0.00,,,0.00,weatherlink.com 1.10,2013-01-18 08:04:00,
2013-01-18 02:19:00,35.1,35.0,30.39,West,263,0.0,1.0,99,0.00,,,0.00,weatherlink.com 1.10,2013-01-18 08:19:00,
2013-01-18 02:34:00,36.0,36.0,30.39,West,271,0.0,1.0,99,0.00,,,0.00,weatherlink.com 1.10,2013-01-18 08:34:00,
2013-01-18 02:49:00,36.5,36.0,30.39,North,354,1.0,4.0,98,0.00,,,0.00,weatherlink.com 1.10,2013-01-18 08:49:00,
2013-01-18 03:04:00,37.1,36.0,30.39,WNW,284,0.0,1.0,97,0.00,,,0.00,weatherlink.com 1.10,2013-01-18 09:04:00,
2013-01-18 03:19:00,37.5,37.0,30.40,NW,315,1.0,4.0,96,0.00,,,0.00,weatherlink.com 1.10,2013-01-18 09:19:00,
2013-01-18 03:34:00,37.5,36.0,30.40,NW,311,0.0,4.0,95,0.00,,,0.00,weatherlink.com 1.10,2013-01-18 09:34:00,
2013-01-18 03:49:00,37.5,36.0,30.41,WSW,250,0.0,2.0,95,0.00,,,0.00,weatherlink.com 1.10,2013-01-18 09:49:00,
2013-01-18 04:04:00,37.4,36.0,30.40,NNW,330,1.0,2.0,94,0.00,,,0.00,weatherlink.com 1.10,2013-01-18 10:04:00,
2013-01-18 04:19:00,37.8,36.0,30.41,NW,304,2.0,5.0,94,0.00,,,0.00,weatherlink.com 1.10,2013-01-18 10:19:00,
2013-01-18 04:34:00,38.1,36.0,30.41,WNW,301,2.0,11.0,93,0.00,,,0.00,weatherlink.com 1.10,2013-01-18 10:34:00,
2013-01-18 04:49:00,38.1,36.0,30.42,NW,309,0.0,6.0,92,0.00,,,0.00,weatherlink.com 1.10,2013-01-18 10:49:00,
2013-01-18 05:04:00,37.9,36.0,30.42,NNW,328,1.0,5.0,92,0.00,,,0.00,weatherlink.com 1.10,2013-01-18 11:04:00,
2013-01-18 05:19:00,37.6,36.0,30.43,NE,46,0.0,3.0,92,0.00,,,0.00,weatherlink.com 1.10,2013-01-18 11:19:00,
2013-01-18 05:34:00,37.4,36.0,30.43,North,3,1.0,8.0,93,0.00,,,0.00,weatherlink.com 1.10,2013-01-18 11:34:00,
2013-01-18 05:49:00,37.1,35.0,30.44,NE,53,0.0,4.0,93,0.00,,,0.00,weatherlink.com 1.10,2013-01-18 11:49:00,
2013-01-18 06:04:00,36.9,35.0,30.44,NE,41,0.0,3.0,93,0.00,,,0.00,weatherlink.com 1.10,2013-01-18 12:04:00,
2013-01-18 06:19:00,36.8,35.0,30.45,NE,40,0.0,7.0,94,0.00,,,0.00,weatherlink.com 1.10,2013-01-18 12:19:00,
2013-01-18 06:34:00,36.8,35.0,30.45,NE,56,0.0,5.0,94,0.00,,,0.00,weatherlink.com 1.10,2013-01-18 12:34:00,
2013-01-18 06:49:00,36.8,35.0,30.46,NE,40,0.0,5.0,94,0.00,,,0.00,weatherlink.com 1.10,2013-01-18 12:49:00,
2013-01-18 07:04:00,36.6,35.0,30.46,NW,320,0.0,2.0,94,0.00,,,0.00,weatherlink.com 1.10,2013-01-18 13:04:00,
2013-01-18 07:19:00,37.0,36.0,30.46,ENE,65,3.0,6.0,94,0.00,,,0.00,weatherlink.com 1.10,2013-01-18 13:19:00,
2013-01-18 07:34:00,37.8,36.0,30.46,ESE,121,0.0,5.0,93,0.00,,,0.00,weatherlink.com 1.10,2013-01-18 13:34:00,
2013-01-18 07:49:00,38.9,37.0,30.47,East,89,0.0,6.0,91,0.00,,,0.00,weatherlink.com 1.10,2013-01-18 13:49:00,
2013-01-18 08:04:00,40.0,37.0,30.48,NE,39,2.0,9.0,88,0.00,,,0.00,weatherlink.com 1.10,2013-01-18 14:04:00,
2013-01-18 08:19:00,41.3,37.0,30.48,ENE,66,0.0,6.0,86,0.00,,,0.00,weatherlink.com 1.10,2013-01-18 14:19:00,
2013-01-18 08:34:00,42.3,38.0,30.49,NW,326,0.0,9.0,83,0.00,,,0.00,weatherlink.com 1.10,2013-01-18 14:34:00,
2013-01-18 08:49:00,42.9,37.0,30.50,NW,316,0.0,10.0,81,0.00,,,0.00,weatherlink.com 1.10,2013-01-18 14:49:00,
2013-01-18 09:05:00,43.7,38.0,30.50,East,79,6.0,11.0,79,0.00,,,0.00,weatherlink.com 1.10,2013-01-18 15:05:00,
2013-01-18 09:20:00,44.5,38.0,30.50,NE,49,4.0,10.0,77,0.00,,,0.00,weatherlink.com 1.10,2013-01-18 15:20:00,
2013-01-18 09:35:00,45.5,39.0,30.50,ENE,65,0.0,7.0,77,0.00,,,0.00,weatherlink.com 1.10,2013-01-18 15:35:00,
2013-01-18 09:50:00,46.4,39.0,30.50,NE,46,2.0,9.0,74,0.00,,,0.00,weatherlink.com 1.10,2013-01-18 15:50:00,
2013-01-18 10:05:00,48.1,39.0,30.50,East,91,8.0,9.0,72,0.00,,,0.00,weatherlink.com 1.10,2013-01-18 16:05:00,
2013-01-18 10:20:00,48.8,39.0,30.50,East,86,1.0,9.0,70,0.00,,,0.00,weatherlink.com 1.10,2013-01-18 16:20:00,
2013-01-18 10:35:00,49.9,40.0,30.49,NW,307,1.0,9.0,68,0.00,,,0.00,weatherlink.com 1.10,2013-01-18 16:35:00,
2013-01-18 10:50:00,50.7,40.0,30.48,ENE,65,4.0,7.0,66,0.00,,,0.00,weatherlink.com 1.10,2013-01-18 16:50:00,
2013-01-18 11:05:00,51.5,40.0,30.48,East,84,1.0,8.0,66,0.00,,,0.00,weatherlink.com 1.10,2013-01-18 17:05:00,
2013-01-18 11:20:00,52.7,41.0,30.47,East,98,3.0,6.0,64,0.00,,,0.00,weatherlink.com 1.10,2013-01-18 17:20:00,
2013-01-18 11:35:00,53.5,41.0,30.46,ENE,78,3.0,6.0,62,0.00,,,0.00,weatherlink.com 1.10,2013-01-18 17:35:00,
2013-01-18 11:50:00,54.4,41.0,30.45,SE,128,5.0,8.0,62,0.00,,,0.00,weatherlink.com 1.10,2013-01-18 17:50:00,
2013-01-18 12:05:00,54.9,41.0,30.45,ENE,63,3.0,7.0,59,0.00,,,0.00,weatherlink.com 1.10,2013-01-18 18:05:00,
2013-01-18 12:20:00,55.6,42.0,30.43,NE,49,2.0,9.0,60,0.00,,,0.00,weatherlink.com 1.10,2013-01-18 18:20:00,
2013-01-18 12:35:00,56.3,42.0,30.43,East,80,0.0,9.0,59,0.00,,,0.00,weatherlink.com 1.10,2013-01-18 18:35:00,
2013-01-18 12:50:00,57.1,43.0,30.41,NNE,25,2.0,5.0,59,0.00,,,0.00,weatherlink.com 1.10,2013-01-18 18:50:00,
2013-01-18 13:05:00,57.7,42.0,30.41,NNE,30,2.0,5.0,56,0.00,,,0.00,weatherlink.com 1.10,2013-01-18 19:05:00,
2013-01-18 13:20:00,58.2,40.0,30.41,NW,321,2.0,7.0,52,0.00,,,0.00,weatherlink.com 1.10,2013-01-18 19:20:00,
2013-01-18 13:35:00,58.3,41.0,30.40,ENE,70,0.0,5.0,53,0.00,,,0.00,weatherlink.com 1.10,2013-01-18 19:35:00,
2013-01-18 13:50:00,58.9,41.0,30.39,NE,44,3.0,4.0,52,0.00,,,0.00,weatherlink.com 1.10,2013-01-18 19:50:00,
2013-01-18 14:05:00,58.9,40.0,30.39,SE,125,2.0,6.0,50,0.00,,,0.00,weatherlink.com 1.10,2013-01-18 20:05:00,
2013-01-18 14:20:00,58.8,39.0,30.38,NE,44,5.0,7.0,49,0.00,,,0.00,weatherlink.com 1.10,2013-01-18 20:20:00,
2013-01-18 14:35:00,59.5,40.0,30.38,ENE,68,2.0,5.0,48,0.00,,,0.00,weatherlink.com 1.10,2013-01-18 20:35:00,
2013-01-18 14:50:00,59.3,39.0,30.38,NNE,23,2.0,7.0,47,0.00,,,0.00,weatherlink.com 1.10,2013-01-18 20:50:00,
2013-01-18 15:06:00,59.5,39.0,30.38,NNW,347,2.0,6.0,47,0.00,,,0.00,weatherlink.com 1.10,2013-01-18 21:06:00,
2013-01-18 15:21:00,60.4,40.0,30.38,North,11,0.0,3.0,48,0.00,,,0.00,weatherlink.com 1.10,2013-01-18 21:21:00,
2013-01-18 15:36:00,60.4,39.0,30.38,East,84,0.0,8.0,46,0.00,,,0.00,weatherlink.com 1.10,2013-01-18 21:36:00,
2013-01-18 15:51:00,59.3,39.0,30.38,NE,42,2.0,5.0,47,0.00,,,0.00,weatherlink.com 1.10,2013-01-18 21:51:00,
2013-01-18 16:06:00,58.2,38.0,30.38,NE,45,0.0,5.0,48,0.00,,,0.00,weatherlink.com 1.10,2013-01-18 22:06:00,
2013-01-18 16:21:00,57.7,38.0,30.38,NE,34,0.0,2.0,48,0.00,,,0.00,weatherlink.com 1.10,2013-01-18 22:21:00,
2013-01-18 16:36:00,57.1,38.0,30.38,NE,47,0.0,5.0,49,0.00,,,0.00,weatherlink.com 1.10,2013-01-18 22:36:00,
2013-01-18 16:51:00,56.3,38.0,30.38,North,11,0.0,4.0,51,0.00,,,0.00,weatherlink.com 1.10,2013-01-18 22:51:00,
2013-01-18 17:06:00,54.8,39.0,30.38,North,4,0.0,2.0,55,0.00,,,0.00,weatherlink.com 1.10,2013-01-18 23:06:00,
2013-01-18 17:21:00,52.5,40.0,30.39,NNE,27,0.0,0.0,62,0.00,,,0.00,weatherlink.com 1.10,2013-01-18 23:21:00,
2013-01-18 17:36:00,49.8,40.0,30.40,NNE,27,0.0,0.0,70,0.00,,,0.00,weatherlink.com 1.10,2013-01-18 23:36:00,
2013-01-18 17:51:00,47.3,41.0,30.40,NNE,27,0.0,0.0,78,0.00,,,0.00,weatherlink.com 1.10,2013-01-18 23:51:00,
2013-01-18 18:06:00,44.9,41.0,30.40,NNE,27,0.0,0.0,85,0.00,,,0.00,weatherlink.com 1.10,2013-01-19 00:06:00,
2013-01-18 18:20:00,43.3,39.4,30.40,NNE,27,0.0,0.0,86,0.00,,,0.00,Wunderground v.1.15,2013-01-19 00:20:00,
2013-01-18 18:25:00,42.7,39.1,30.41,NNE,27,0.0,0.0,87,0.00,,,0.00,Wunderground v.1.15,2013-01-19 00:25:00,
2013-01-18 18:30:00,42.3,39.3,30.41,NNE,27,0.0,0.0,89,0.00,,,0.00,Wunderground v.1.15,2013-01-19 00:30:00,
2013-01-18 18:35:00,42.0,39.3,30.41,NNE,27,0.0,0.0,90,0.00,,,0.00,Wunderground v.1.15,2013-01-19 00:35:00,
2013-01-18 18:40:00,41.6,38.9,30.41,NNE,27,0.0,0.0,90,0.00,,,0.00,Wunderground v.1.15,2013-01-19 00:40:00,
2013-01-18 18:50:00,41.1,39.0,30.41,NNE,27,0.0,0.0,92,0.00,,,0.00,Wunderground v.1.15,2013-01-19 00:50:00,
2013-01-18 19:00:00,40.8,38.9,30.41,NNE,27,0.0,0.0,93,0.00,,,0.00,Wunderground v.1.15,2013-01-19 01:00:00,
2013-01-18 19:05:00,40.6,38.7,30.41,NNE,27,0.0,0.0,93,0.00,,,0.00,Wunderground v.1.15,2013-01-19 01:05:00,
2013-01-18 19:15:00,40.0,38.1,30.40,NNE,27,0.0,0.0,93,0.00,,,0.00,Wunderground v.1.15,2013-01-19 01:15:00,
2013-01-18 19:20:00,39.8,37.9,30.41,NNE,27,0.0,0.0,93,0.00,,,0.00,Wunderground v.1.15,2013-01-19 01:20:00,
2013-01-18 19:25:00,39.7,38.1,30.41,NNE,27,0.0,0.0,94,0.00,,,0.00,Wunderground v.1.15,2013-01-19 01:25:00,
2013-01-18 19:35:00,39.0,37.1,30.41,NNE,27,0.0,0.0,93,0.00,,,0.00,Wunderground v.1.15,2013-01-19 01:35:00,
2013-01-18 19:40:00,38.5,36.7,30.40,NNE,27,0.0,0.0,93,0.00,,,0.00,Wunderground v.1.15,2013-01-19 01:40:00,
2013-01-18 19:50:00,37.9,36.3,30.40,NNE,27,0.0,0.0,94,0.00,,,0.00,Wunderground v.1.15,2013-01-19 01:50:00,
2013-01-18 19:55:00,37.7,36.1,30.40,NNE,27,0.0,0.0,94,0.00,,,0.00,Wunderground v.1.15,2013-01-19 01:55:00,
2013-01-18 20:00:00,37.6,36.3,30.40,NNE,27,0.0,0.0,95,0.00,,,0.00,Wunderground v.1.15,2013-01-19 02:00:00,
2013-01-18 20:05:00,37.4,36.1,30.41,NNE,27,0.0,0.0,95,0.00,,,0.00,Wunderground v.1.15,2013-01-19 02:05:00,
2013-01-18 20:15:00,37.9,36.9,30.41,NNE,27,0.0,0.0,96,0.00,,,0.00,Wunderground v.1.15,2013-01-19 02:15:00,
2013-01-18 20:20:00,37.9,36.9,30.41,NNE,27,0.0,0.0,96,0.00,,,0.00,Wunderground v.1.15,2013-01-19 02:20:00,
2013-01-18 20:25:00,37.6,36.6,30.41,NNE,27,0.0,0.0,96,0.00,,,0.00,Wunderground v.1.15,2013-01-19 02:25:00,
2013-01-18 20:30:00,37.4,36.4,30.40,NNE,27,0.0,0.0,96,0.00,,,0.00,Wunderground v.1.15,2013-01-19 02:30:00,
2013-01-18 20:35:00,37.2,36.2,30.40,NNE,27,0.0,0.0,96,0.00,,,0.00,Wunderground v.1.15,2013-01-19 02:35:00,
2013-01-18 20:45:00,37.3,36.5,30.40,NNE,27,0.0,0.0,97,0.00,,,0.00,Wunderground v.1.15,2013-01-19 02:45:00,
2013-01-18 20:51:00,37.1,36.0,30.40,NNE,27,0.0,0.0,96,0.00,,,0.00,weatherlink.com 1.10,2013-01-19 02:51:00,
2013-01-18 21:00:00,36.3,35.3,30.40,NNE,27,0.0,0.0,96,0.00,,,0.00,Wunderground v.1.15,2013-01-19 03:00:00,
2013-01-18 21:05:00,36.0,35.0,30.40,NNE,27,0.0,0.0,96,0.00,,,0.00,Wunderground v.1.15,2013-01-19 03:05:00,
2013-01-18 21:15:00,35.8,35.0,30.40,NNE,27,0.0,0.0,97,0.00,,,0.00,Wunderground v.1.15,2013-01-19 03:15:00,
2013-01-18 21:20:00,35.6,34.8,30.40,NNE,27,0.0,0.0,97,0.00,,,0.00,Wunderground v.1.15,2013-01-19 03:20:00,
2013-01-18 21:25:00,35.4,34.6,30.40,NNE,27,0.0,0.0,97,0.00,,,0.00,Wunderground v.1.15,2013-01-19 03:25:00,
2013-01-18 21:30:00,35.1,34.3,30.40,NNE,27,0.0,0.0,97,0.00,,,0.00,Wunderground v.1.15,2013-01-19 03:30:00,
2013-01-18 21:35:00,34.8,33.8,30.40,NNE,27,0.0,0.0,96,0.00,,,0.00,Wunderground v.1.15,2013-01-19 03:35:00,
2013-01-18 21:40:00,34.7,33.9,30.40,NNE,27,0.0,0.0,97,0.00,,,0.00,Wunderground v.1.15,2013-01-19 03:40:00,
2013-01-18 21:45:00,34.7,33.9,30.40,NNE,27,0.0,0.0,97,0.00,,,0.00,Wunderground v.1.15,2013-01-19 03:45:00,
2013-01-18 21:51:00,34.6,34.0,30.39,NNE,27,0.0,0.0,97,0.00,,,0.00,weatherlink.com 1.10,2013-01-19 03:51:00,
2013-01-18 22:00:00,34.5,33.7,30.39,NNE,27,0.0,0.0,97,0.00,,,0.00,Wunderground v.1.15,2013-01-19 04:00:00,
2013-01-18 22:05:00,34.4,33.6,30.39,NNE,27,0.0,0.0,97,0.00,,,0.00,Wunderground v.1.15,2013-01-19 04:05:00,
2013-01-18 22:15:00,34.2,33.4,30.39,NNE,27,0.0,0.0,97,0.00,,,0.00,Wunderground v.1.15,2013-01-19 04:15:00,
2013-01-18 22:20:00,34.5,34.0,30.39,NNE,27,0.0,0.0,98,0.00,,,0.00,Wunderground v.1.15,2013-01-19 04:20:00,
2013-01-18 22:30:00,34.8,34.3,30.38,NNE,27,0.0,0.0,98,0.00,,,0.00,Wunderground v.1.15,2013-01-19 04:30:00,
2013-01-18 22:35:00,34.9,34.4,30.38,NW,307,0.0,0.0,98,0.00,,,0.00,Wunderground v.1.15,2013-01-19 04:35:00,
2013-01-18 22:45:00,34.8,34.3,30.38,NW,307,0.0,0.0,98,0.00,,,0.00,Wunderground v.1.15,2013-01-19 04:45:00,
2013-01-18 22:50:00,34.7,34.2,30.37,NW,307,0.0,0.0,98,0.00,,,0.00,Wunderground v.1.15,2013-01-19 04:50:00,
2013-01-18 23:20:00,34.9,34.4,30.37,NW,307,0.0,0.0,98,0.00,,,0.00,Wunderground v.1.15,2013-01-19 05:20:00,
2013-01-18 23:22:00,34.9,35.0,30.37,NW,307,0.0,0.0,99,0.00,,,0.00,weatherlink.com 1.10,2013-01-19 05:22:00,
2013-01-18 23:30:00,34.8,34.3,30.37,NW,307,0.0,0.0,98,0.00,,,0.00,Wunderground v.1.15,2013-01-19 05:30:00,
2013-01-18 23:37:00,34.5,34.0,30.37,NW,307,0.0,0.0,98,0.00,,,0.00,weatherlink.com 1.10,2013-01-19 05:37:00,
2013-01-18 23:45:00,34.5,34.2,30.37,NW,307,0.0,0.0,99,0.00,,,0.00,Wunderground v.1.15,2013-01-19 05:45:00,
2013-01-18 23:50:00,34.5,34.0,30.37,NW,307,0.0,0.0,98,0.00,,,0.00,Wunderground v.1.15,2013-01-19 05:50:00,
2013-01-18 23:52:00,34.4,34.0,30.37,NW,307,0.0,0.0,98,0.00,,,0.00,weatherlink.com 1.10,2013-01-19 05:52:00,